[[{"header":{"parameterUnit":"m.s-1","parameterCategory":1,"la1":30.2992,"la2":30.254,"lo1":-89.0895,"lo2":-89.0443,"dy":0.0025,"dx":0.0025,"nx":19,"ny":19,"refTime":"2026-03-17T03:00:00:Z","depth":0,"parameterNumber":2,"parameterNumberName":"U-component_of_WINDS"},"data":[0,0,0,-1.763,-1.7633,-1.7767,-1.7768,-1.7945,-1.7946,0,0,0,0,0,0,0,0,0,0,0,-1.7595,-1.7596,-1.763,-1.7633,-1.7767,-1.7768,-1.7945,-1.7947,0,0,0,0,0,0,0,0,0,0,0,-1.7594,-1.7596,-1.7598,-1.7634,-1.7767,-1.7768,-1.7944,-1.7841,0,0,0,0,0,0,0,0,0,0,-1.771,-1.7682,-1.7596,-1.7598,-1.7635,-1.7767,-1.7768,-1.7836,-1.7847,-1.7887,0,-1.7924,0,-1.7938,-1.7959,-1.7959,0,0,0,-1.763,-1.7672,-1.7704,-1.7598,-1.7636,-1.7767,-1.7706,-1.7842,-1.7855,-1.7902,-1.7927,-1.7933,-1.7941,-1.796,-1.7961,-1.8201,-1.8202,0,0,-1.7623,-1.7621,-1.7695,-1.7713,-1.7693,-1.7702,-1.771,-1.785,-1.7876,-1.7927,-1.7937,-1.7944,-1.7961,-1.7963,-1.82,-1.8201,0,0,0,-1.7604,-1.7616,-1.7645,-1.7706,-1.7729,-1.7706,-1.7715,-1.787,-1.7879,-1.7939,-1.7946,-1.7962,-1.7965,-1.8198,-1.82,-1.8262,0,0,0,-1.7599,-1.7605,-1.7642,-1.7642,-1.7727,-1.7802,-1.7732,-1.787,-1.7885,-1.7945,-1.7962,-1.7966,-1.8197,-1.8199,-1.8257,-1.8292,0,0,0,-1.7585,-1.7604,-1.7624,-1.7642,-1.77,-1.7799,-1.7817,-1.7873,-1.789,-1.796,-1.7967,-1.8196,-1.8199,-1.8253,-1.8285,-1.8354,0,0,0,-1.7569,-1.7678,-1.7625,-1.775,-1.7699,-1.7837,-1.7816,-1.7919,-1.7986,-1.7963,-1.8197,-1.82,-1.8252,-1.828,-1.8349,-1.8412,-1.8438,0,0,-1.7706,-1.7695,-1.7768,-1.7725,-1.7872,-1.7816,-1.7972,-1.8035,-1.8043,-1.8147,-1.8153,-1.8259,-1.8284,-1.8353,-1.8584,-1.8604,0,0,0,-1.7811,-1.7864,-1.7903,-1.7966,-1.8017,-1.8062,-1.81,-1.8123,-1.8212,-1.8096,-1.8303,-1.8318,-1.8358,-1.8388,-1.8405,-1.844,-1.8214,-1.8214,-1.8213,-1.8004,-1.8007,-1.8128,-1.8147,-1.8209,-1.8247,-1.8297,-1.8334,-1.832,-1.8368,-1.84,-1.8539,-1.8574,-1.8587,-1.8623,-1.8433,-1.8433,-1.8433,-1.8433,-1.8205,-1.828,-1.8257,-1.8366,-1.8368,-1.846,-1.85,-1.8486,-1.8571,-1.8516,-1.8552,-1.8492,-1.861,-1.8641,-1.8438,-1.8437,-1.8437,-1.8436,-1.8436,-1.8332,-1.8368,-1.8394,-1.8484,-1.8554,-1.8569,-1.8651,-1.865,-1.865,-1.8685,-1.8717,-1.8716,-1.8715,-1.87,-1.8701,-1.8701,-1.8702,-1.8702,-1.8702,-1.8454,-1.848,-1.855,-1.8611,-1.865,-1.8702,-1.874,-1.8778,-1.8821,-1.8814,-1.8814,-1.8795,-1.8621,-1.8577,-1.871,-1.8709,-1.8708,-1.8707,-1.8706,-1.8657,-1.861,-1.8718,-1.8758,-1.8827,-1.8896,-1.8893,-1.8971,-1.9003,-1.9043,-1.9016,-1.8887,-1.8876,-1.8862,-1.8826,-1.9015,-1.9015,-1.9015,-1.9015,-1.8764,-1.8757,-1.8866,-1.8929,-1.8991,-1.8998,-1.9118,-1.9147,-1.9171,-1.919,-1.9162,-1.9114,-1.91,-1.9097,-1.9078,-1.9044,-1.9284,-1.9285,-1.9285,-1.8889,-1.8888,-1.8991,-1.9012,-1.9066,-1.9112,-1.9225,-1.9297,-1.9313,-1.9296,-1.9205,-1.9194,-1.9116,-1.909,-1.9072,-1.9042,-1.898,0,0]},{"header":{"parameterUnit":"m.s-1","parameterCategory":1,"la1":30.2992,"la2":30.254,"lo1":-89.0895,"lo2":-89.0443,"dy":0.0025,"dx":0.0025,"nx":19,"ny":19,"refTime":"2026-03-17T03:00:00:Z","depth":0,"parameterNumber":3,"parameterNumberName":"V-component_of_WINDS"},"data":[0,0,0,-3.8897,-3.8899,-3.8998,-3.8998,-3.9134,-3.9135,0,0,0,0,0,0,0,0,0,0,0,-3.8877,-3.8878,-3.8897,-3.89,-3.8998,-3.8998,-3.9134,-3.9135,0,0,0,0,0,0,0,0,0,0,0,-3.8876,-3.8878,-3.888,-3.89,-3.8998,-3.8998,-3.9133,-3.9055,0,0,0,0,0,0,0,0,0,0,-3.8958,-3.8949,-3.8878,-3.888,-3.8901,-3.8997,-3.8998,-3.9051,-3.906,-3.9095,0,-3.913,0,-3.9135,-3.9145,-3.9146,0,0,0,-3.8893,-3.8941,-3.896,-3.888,-3.8902,-3.8997,-3.8951,-3.9056,-3.9066,-3.9106,-3.9132,-3.9137,-3.9137,-3.9146,-3.9147,-3.9374,-3.9376,0,0,-3.8887,-3.8899,-3.8953,-3.8967,-3.8955,-3.8948,-3.8955,-3.9062,-3.909,-3.9132,-3.914,-3.914,-3.9147,-3.9148,-3.9373,-3.9375,0,0,0,-3.8876,-3.8896,-3.8911,-3.8962,-3.8978,-3.8951,-3.8958,-3.9085,-3.9089,-3.9141,-3.9141,-3.9148,-3.915,-3.9371,-3.9374,-3.9453,0,0,0,-3.8873,-3.8889,-3.8909,-3.8918,-3.8977,-3.9034,-3.8979,-3.9081,-3.9093,-3.914,-3.9148,-3.9151,-3.937,-3.9373,-3.9448,-3.9489,0,0,0,-3.8867,-3.8889,-3.8906,-3.8918,-3.8961,-3.9031,-3.9041,-3.9084,-3.9094,-3.9146,-3.9152,-3.9369,-3.9372,-3.9443,-3.9481,-3.9551,0,0,0,-3.8865,-3.8977,-3.8908,-3.9032,-3.896,-3.9081,-3.9041,-3.913,-3.9184,-3.9149,-3.937,-3.9373,-3.9442,-3.9476,-3.9546,-3.9611,-3.964,0,0,-3.9013,-3.8995,-3.9067,-3.9008,-3.9144,-3.9065,-3.9212,-3.925,-3.9244,-3.933,-3.9336,-3.945,-3.948,-3.955,-3.98,-3.9823,0,0,0,-3.9118,-3.917,-3.9203,-3.9256,-3.9288,-3.9317,-3.9332,-3.9345,-3.9418,-3.9292,-3.9494,-3.9512,-3.9552,-3.9583,-3.9602,-3.9635,-3.9388,-3.9388,-3.9388,-3.9344,-3.9329,-3.9446,-3.9443,-3.9494,-3.9506,-3.9545,-3.9565,-3.9536,-3.9584,-3.961,-3.9763,-3.9799,-3.9814,-3.9848,-3.9644,-3.9644,-3.9644,-3.9645,-3.9557,-3.9627,-3.9584,-3.9682,-3.9665,-3.9746,-3.9761,-3.9737,-3.9809,-3.9743,-3.9778,-3.9707,-3.984,-3.9869,-3.9651,-3.965,-3.9649,-3.9648,-3.9648,-3.9703,-3.9734,-3.9748,-3.982,-3.9877,-3.9869,-3.9939,-3.9921,-3.9904,-3.9938,-3.9961,-3.996,-3.9955,-3.9951,-3.9951,-3.9952,-3.9952,-3.9953,-3.9953,-3.9848,-3.9862,-3.9924,-3.9965,-3.9994,-4.0031,-4.0042,-4.007,-4.0096,-4.0077,-4.0077,-4.0041,-3.9856,-3.9809,-3.9961,-3.996,-3.9959,-3.9958,-3.9957,-4.0068,-4.0015,-4.0111,-4.0141,-4.0185,-4.0241,-4.0216,-4.0274,-4.0294,-4.0329,-4.0285,-4.0152,-4.0132,-4.0117,-4.0077,-4.029,-4.029,-4.029,-4.029,-4.019,-4.0178,-4.027,-4.0318,-4.0363,-4.0349,-4.0455,-4.0463,-4.0464,-4.0474,-4.0441,-4.0388,-4.0373,-4.0362,-4.0341,-4.0304,-4.0569,-4.0569,-4.0569,-4.0323,-4.0314,-4.0409,-4.0409,-4.0442,-4.0469,-4.0567,-4.0622,-4.0611,-4.058,-4.0482,-4.047,-4.0384,-4.0357,-4.0325,-4.0292,-4.0224,0,0]}]]